This is the latest recevied weather packets stored in our database for station/object KF0TNT. If no packets are shown the sender has not sent any weather packets the latest 10 day(s).
| Time | Temp. | Humidity | Pressure | Rain* | Wind** | Luminosity | Snow |
|---|---|---|---|---|---|---|---|
| 1788155316 | 60° F | 69% | 770.5 mmHg | 0 in | - | 0 W/m² | - |
| 1788155011 | 60° F | 68% | 770.5 mmHg | 0 in | - | 0 W/m² | - |
| 1788154710 | 60° F | 68% | 770.6 mmHg | 0 in | - | 0 W/m² | - |
| 1788154408 | 60° F | 67% | 770.6 mmHg | 0 in | - | 0 W/m² | - |
| 1788154103 | 61° F | 66% | 770.8 mmHg | 0 in | - | 0 W/m² | - |
| 1788153802 | 61° F | 66% | 770.8 mmHg | 0 in | - | 0 W/m² | - |
| 1788153501 | 60° F | 65% | 770.8 mmHg | 0 in | - | 0 W/m² | - |
| 1788153199 | 60° F | 71% | 770.6 mmHg | 0 in | - | 0 W/m² | - |
| 1788152895 | 60° F | 71% | 770.5 mmHg | 0 in | - | 0 W/m² | - |
| 1788152593 | 61° F | 69% | 770.8 mmHg | 0 in | - | 0 W/m² | - |
| 1788152289 | 61° F | 66% | 770.5 mmHg | 0 in | - | 0 W/m² | - |
| 1788151988 | 62° F | 62% | 770.5 mmHg | 0 in | - | 0 W/m² | - |
| 1788151683 | 61° F | 60% | 770.5 mmHg | 0 in | - | 0 W/m² | - |
| 1788151378 | 61° F | 64% | 770.5 mmHg | 0.02 in | - | 0 W/m² | - |
| 1788151074 | 61° F | 64% | 770.2 mmHg | 0.02 in | - | 0 W/m² | - |
| 1788150768 | 61° F | 66% | 770.8 mmHg | 0 in | - | 0 W/m² | - |
| 1788150469 | 61° F | 65% | 771.1 mmHg | 0.02 in | - | 0 W/m² | - |
| 1788150163 | 61° F | 68% | 771.1 mmHg | 0.02 in | - | 0 W/m² | - |
| 1788149858 | 60° F | 68% | 771.2 mmHg | 0.02 in | - | 0 W/m² | - |
| 1788149558 | 61° F | 68% | 770.8 mmHg | 0.05 in | - | 0 W/m² | - |
| 1788149253 | 62° F | 66% | 770.5 mmHg | 0.05 in | - | 0 W/m² | - |
| 1788148952 | 64° F | 61% | 770.6 mmHg | 0 in | - | 0 W/m² | - |
| 1788148651 | 66° F | 53% | 770.6 mmHg | 0 in | - | 0 W/m² | - |
| 1788148350 | 67° F | 47% | 770.5 mmHg | 0 in | - | 0 W/m² | - |
| 1788148049 | 67° F | 45% | 770.5 mmHg | 0 in | - | 0 W/m² | - |
* Rain latest hour (hover to see other rain measurements)
** Current wind speed in m/s (hover to see current wind gust speed)